SCP
0 0 0 0 0 0 0 0 0 0 0 0 0 0 0 0 0 0 0 0 0 0 0 0 0 0 0 0 0 0 0 1 1 1 1 1 1 1 1 1 0 0 0
0 0 0 0 0 0 0 0 0 0 0 0 0 0 0 0 0 0 0 0 0 1 0 1 1 0 0 0 0 0 0 0 1 1 1 1 1 1 1 1 1 0 0
0 0 0 0 0 0 0 0 0 0 0 0 0 0 0 0 0 0 0 0 0 1 1 0 1 1 1 0 0 0 0 0 1 1 1 1 1 1 1 1 1 1 0
0 0 0 0 0 0 0 0 0 0 0 0 0 0 0 0 0 0 0 0 0 1 0 0 1 1 1 1 0 0 0 0 0 1 1 1 1 1 1 1 1 1 1
1 1 1 0 0 0 0 0 0 0 0 0 0 0 0 0 0 0 0 0 0 0 0 0 0 1 1 1 1 0 0 0 0 0 1 1 1 1 1 1 1 1 1
1 1 1 0 0 0 0 0 0 0 0 0 0 0 0 0 0 0 0 0 0 0 0 0 0 0 1 1 1 1 1 1 1 0 0 1 1 1 1 1 1 1 1
1 1 1 0 0 0 0 0 0 0 0 0 0 0 0 0 0 0 0 0 0 0 0 0 0 0 0 0 0 1 1 1 1 1 0 1 1 1 1 1 1 1 1
1 1 0 0 0 0 0 0 0 0 0 0 0 0 0 0 0 0 0 0 0 0 0 0 0 0 0 0 0 0 0 1 1 1 1 1 1 1 0 0 0 0 0
1 1 0 0 0 0 0 0 0 0 0 0 0 0 0 0 0 0 0 0 0 0 0 0 0 0 0 0 0 0 0 0 0 1 1 1 1 1 1 0 0 0 0
1 1 1 0 0 0 0 0 0 0 0 0 0 0 0 0 0 0 0 0 0 0 0 0 0 0 0 0 0 0 0 0 0 0 0 1 1 1 1 1 1 1 1
1 1 1 0 0 0 0 0 0 0 0 0 0 0 0 0 0 0 0 0 0 0 0 0 0 0 0 0 0 0 0 0 0 0 0 1 1 1 1 1 1 1 1
0 0 0 0 0 0 0 0 0 0 0 0 0 0 0 0 0 0 0 0 0 0 0 0 0 0 0 0 0 0 0 0 0 0 0 0 0 0 0 0 1 1 1
0 0 0 0 0 0 0 0 0 0 0 0 0 0 0 0 0 0 0 0 0 0 0 0 0 0 0 0 0 0 0 0 0 0 0 0 0 0 0 0 1 1 1
0 0 0 0 1 1 0 0 0 0 0 0 0 0 0 0 0 0 0 0 0 0 0 0 0 0 0 0 0 0 0 0 0 0 0 0 0 0 0 0 0 0 0
0 0 0 0 1 1 1 0 0 0 0 0 0 0 0 0 0 0 0 0 0 0 0 0 0 0 0 0 0 0 0 0 0 0 0 0 0 0 0 0 0 0 0
0 0 0 0 1 1 1 0 0 0 0 0 0 0 0 0 0 0 0 0 0 0 0 0 0 0 0 0 0 0 0 0 0 0 0 0 0 0 0 0 0 0 0
0 0 0 0 0 0 0 0 0 0 0 0 0 0 0 0 0 0 0 0 0 0 0 0 0 0 0 0 0 0 0 0 0 0 0 0 0 0 0 0 0 0 0
0 0 0 0 0 0 0 0 0 0 0 0 0 0 0 0 0 0 0 0 0 0 0 0 0 0 0 0 0 0 0 0 0 0 0 0 0 0 0 0 0 0 0
0 0 0 0 0 0 0 0 0 0 0 0 0 0 0 0 0 0 0 0 0 0 0 0 0 0 0 0 0 0 0 0 0 0 0 0 0 0 0 0 0 0 0
0 0 0 0 0 0 0 0 0 0 0 0 0 0 0 0 0 0 0 0 0 0 0 0 0 0 0 0 0 0 0 0 0 0 0 0 0 0 0 0 0 0 0
0 0 0 0 0 0 0 0 0 0 0 0 0 0 0 0 0 0 0 0 0 0 0 0 0 0 0 0 0 0 0 0 0 0 0 0 0 0 0 0 0 0 0
1 1 0 0 0 0 0 0 0 0 0 0 0 0 0 0 0 0 0 0 0 0 0 0 0 0 0 0 0 0 0 0 0 0 0 0 0 0 0 0 0 0 0
1 1 0 0 0 0 0 0 0 0 0 0 0 0 0 0 0 0 0 0 0 0 0 0 0 0 0 0 0 0 0 0 0 0 0 0 0 0 0 0 0 0 0
0 0 0 0 0 0 0 0 0 0 0 0 0 0 0 0 0 0 0 0 0 0 0 0 0 0 0 0 0 0 0 0 0 0 0 0 0 0 0 0 0 0 0
0 0 0 0 0 0 0 0 0 0 0 0 0 0 0 0 0 0 0 0 0 0 0 0 0 0 0 0 0 0 0 0 0 0 0 0 0 0 0 0 0 0 0
0 0 0 0 0 0 0 0 0 0 0 0 0 0 0 0 0 0 0 0 0 0 0 0 0 0 0 0 0 0 0 0 0 0 0 0 0 0 0 0 0 0 0
Wind_Speed
4 3 2 2 2 2 2 2 2 2 2 2 3 4 4 4 4 4 4 12 12 11 12 12 11 11 11 10 10 10 9 10 9 9 9 9 10 9 9 9 9 8 7
4 4 3 3 3 2 2 3 3 2 2 2 3 4 4 4 4 4 3 6 11 11 11 12 11 11 11 11 10 10 10 10 9 9 9 9 9 9 9 9 8 8 7
5 4 3 3 2 2 3 2 2 2 2 2 3 3 4 4 5 5 4 3 4 9 11 11 11 11 11 11 11 10 10 10 9 9 9 9 8 8 8 8 8 8 7
6 5 4 3 2 2 2 2 2 2 1 2 2 2 3 3 5 5 4 4 3 4 7 10 10 10 11 11 11 11 10 10 10 10 9 9 9 9 9 8 8 8 8
5 5 3 2 3 3 2 3 2 2 2 1 2 2 2 3 4 5 5 5 4 4 3 7 10 10 11 11 11 11 11 11 10 11 11 11 11 10 9 9 9 9 9
5 5 3 3 3 3 2 2 3 2 2 2 1 1 1 1 2 3 5 4 4 5 5 5 4 6 11 11 10 11 11 11 12 12 12 11 11 11 11 10 10 10 10
5 5 4 3 3 3 3 3 3 2 1 1 3 2 3 1 1 2 2 3 4 5 5 5 4 3 4 9 10 10 11 12 12 12 12 11 12 11 11 11 11 11 11
5 5 5 3 3 3 3 3 3 2 1 1 3 3 2 3 3 1 2 3 4 3 5 6 5 5 4 3 5 10 10 11 12 12 12 12 11 11 11 12 12 12 12
5 5 5 4 4 3 3 3 3 4 2 1 1 4 3 3 2 3 1 2 3 3 4 4 6 6 6 4 4 8 10 10 11 12 12 11 11 11 11 11 12 12 12
5 5 5 5 4 3 3 3 3 3 4 1 0 0 2 4 3 1 3 2 2 4 4 4 5 6 6 5 6 8 10 10 10 11 10 10 10 10 11 11 12 12 12
4 5 6 5 5 3 4 3 3 3 3 3 1 1 1 1 2 3 1 2 2 3 3 4 4 4 6 5 5 8 11 11 10 9 9 9 9 10 10 11 12 12 12
3 5 5 5 5 4 4 4 4 4 3 3 2 2 2 1 1 2 2 2 3 3 3 3 4 5 5 5 8 11 12 12 11 10 9 9 9 9 9 10 11 11 12
3 5 5 4 4 4 4 4 3 3 3 3 2 2 1 2 2 2 2 2 2 3 2 2 4 4 5 5 6 12 12 13 12 11 11 10 9 9 9 9 10 10 11
5 6 6 5 5 5 4 4 3 2 3 3 2 2 1 1 1 2 3 3 0 2 2 4 2 4 4 5 8 12 8 13 13 12 12 12 11 11 10 10 10 10 10
5 6 6 6 5 5 5 4 2 2 3 2 2 2 1 1 0 1 2 3 4 1 3 4 3 3 4 4 7 7 6 11 14 13 13 13 13 12 12 12 11 11 11
6 7 7 6 5 4 4 4 2 2 3 2 2 1 1 1 0 0 1 1 2 4 3 3 3 3 3 4 6 6 7 11 13 13 14 14 14 14 14 13 13 13 12
6 7 7 6 5 4 4 4 3 2 3 2 2 2 2 2 1 0 0 1 1 2 3 3 2 2 1 2 2 3 4 5 6 13 15 15 15 15 15 15 15 14 14
5 6 6 6 5 5 4 5 4 3 3 3 3 2 2 2 1 1 1 1 1 2 2 3 2 2 2 2 2 3 4 5 5 10 14 15 15 15 15 15 15 15 14
5 5 5 5 4 3 3 3 4 3 3 3 3 3 2 2 2 2 2 1 1 1 2 2 2 2 2 2 1 2 3 3 4 6 9 11 13 13 13 14 14 14 14
5 5 4 4 4 3 2 2 2 2 2 2 1 1 1 1 2 2 1 2 1 1 1 1 2 2 2 2 1 2 3 2 3 3 4 4 5 7 9 11 12 13 13
5 5 5 4 3 3 2 2 2 2 2 2 2 1 1 2 1 0 0 1 1 0 1 1 1 1 2 2 2 2 2 3 3 2 2 3 3 3 4 6 8 10 10
6 6 6 6 5 4 4 4 3 3 3 3 2 2 3 5 5 5 5 4 2 1 1 1 1 2 2 2 2 2 2 2 3 2 2 4 2 3 3 3 5 7 8
7 8 7 7 6 5 6 7 7 5 5 4 4 4 4 6 6 4 5 7 7 7 4 1 1 2 2 2 2 3 2 2 4 3 2 4 2 3 3 5 7 6 6
8 8 7 7 7 7 8 8 8 7 6 6 6 5 5 5 6 5 5 5 5 6 6 3 1 2 2 2 2 2 3 3 4 3 1 3 3 3 4 4 5 5 6
9 8 7 8 8 8 10 9 8 6 7 7 6 6 6 5 8 8 6 5 6 5 7 9 7 5 5 6 3 2 3 2 3 3 2 1 3 4 3 3 3 6 8
10 9 9 8 8 8 11 11 8 5 6 5 4 5 8 7 8 8 5 5 5 5 6 7 7 8 7 7 8 3 2 2 2 3 3 3 2 3 4 3 3 4 5
Wind_Direction
156 159 164 169 179 170 170 171 180 178 178 155 148 143 142 151 155 160 171 175 173 173 174 174 174 174 175 176 177 175 173 171 169 168 167 166 165 163 161 159 157 155 152
155 156 157 165 178 176 170 164 168 158 158 140 143 143 150 157 160 165 170 181 181 180 181 181 181 181 181 183 185 185 182 181 179 177 176 174 175 175 174 172 169 168 165
155 153 154 163 170 165 155 135 131 113 129 124 131 146 154 160 166 173 171 174 184 189 188 188 189 190 190 190 192 193 191 189 186 185 185 184 184 185 185 184 183 181 178
149 145 148 158 157 143 136 130 121 109 98 115 132 155 155 161 170 178 177 179 182 192 200 199 196 197 201 200 200 200 198 196 195 194 193 194 194 195 194 194 194 193 190
145 141 143 148 139 128 133 144 118 126 125 133 150 150 162 168 177 180 184 191 193 194 197 208 204 202 209 211 209 207 205 204 203 203 205 205 204 203 202 202 203 203 202
143 136 136 131 124 119 119 117 117 109 127 155 145 114 169 181 178 185 194 195 198 201 200 204 203 213 218 220 217 216 214 211 210 211 213 214 213 209 208 208 209 210 210
140 138 132 128 129 130 140 133 117 106 95 109 83 36 0 355 225 211 195 195 204 204 196 199 198 203 221 226 224 221 220 218 215 215 217 219 219 215 213 214 215 216 217
148 145 138 141 137 126 123 122 119 114 74 111 122 102 23 345 325 260 202 201 203 199 203 207 202 205 212 213 225 225 223 223 222 220 220 221 221 220 219 220 220 221 222
151 142 147 143 142 141 147 145 132 130 129 43 139 142 148 211 287 318 272 212 192 193 206 205 208 211 211 210 219 229 227 224 224 225 225 222 220 219 220 223 225 226 226
154 150 147 142 141 142 148 157 143 137 132 117 2 180 167 160 154 279 318 299 229 206 204 207 210 209 206 206 212 217 224 223 223 226 226 224 221 219 222 225 230 233 233
160 154 149 144 142 145 153 147 133 130 130 140 145 128 78 80 122 145 237 292 304 260 227 217 208 205 204 203 206 216 218 218 218 220 223 224 224 224 226 231 235 238 239
165 162 154 149 147 151 158 155 144 139 135 131 133 131 137 141 183 163 193 234 253 268 250 232 219 212 208 203 212 214 213 213 214 217 220 222 224 226 230 235 241 245 246
182 182 164 159 156 162 161 152 143 148 149 143 148 152 157 175 176 164 160 209 250 282 292 257 230 218 215 203 216 215 214 213 214 217 220 222 225 229 232 235 239 244 248
185 180 169 166 168 166 162 153 145 159 157 155 157 165 176 195 173 170 164 155 118 318 305 275 268 227 220 205 217 213 216 215 215 217 221 222 225 227 230 232 235 239 242
180 176 170 168 173 167 160 154 156 173 169 176 177 185 191 213 171 174 167 161 154 192 274 275 272 250 225 216 217 208 211 217 216 219 223 227 229 230 232 233 234 236 239
173 165 169 168 168 166 160 158 163 172 173 191 193 190 213 221 215 90 139 165 162 169 225 264 258 268 244 229 216 209 218 223 223 226 229 232 234 235 236 237 237 238 239
165 166 167 164 165 169 166 165 176 176 190 216 223 210 240 236 247 274 126 113 146 162 209 270 272 286 267 249 230 226 229 224 231 234 236 238 239 239 240 240 240 240 241
158 160 159 161 168 173 175 177 191 192 196 214 227 222 249 243 246 253 233 233 214 190 189 254 289 305 285 256 247 240 238 232 233 241 241 243 245 245 245 244 242 242 243
141 140 143 150 154 157 164 176 184 188 189 198 204 206 233 226 252 259 246 245 248 230 185 208 265 284 291 299 293 277 267 269 263 258 250 249 253 254 253 251 249 247 247
134 135 135 142 145 143 142 151 162 171 173 168 165 167 192 191 229 247 250 258 258 276 260 240 269 285 290 305 330 291 296 292 286 289 289 281 275 270 265 261 258 255 253
129 124 117 104 98 101 94 123 141 146 148 130 102 78 63 65 59 87 287 263 250 256 302 295 286 306 311 331 313 297 284 294 288 287 301 298 299 295 287 274 268 267 265
109 102 98 93 79 65 58 79 108 106 104 100 87 62 55 42 32 37 39 44 53 47 319 287 281 282 284 292 299 305 310 327 303 311 325 296 295 290 291 284 285 282 279
103 93 91 90 81 54 59 72 84 89 81 74 70 60 49 39 32 29 39 42 35 30 26 312 296 295 302 304 313 314 300 275 267 285 308 287 298 294 296 299 298 298 302
99 94 89 87 80 59 66 75 82 82 79 71 66 68 67 40 29 32 45 39 28 20 15 16 337 307 314 307 284 275 277 291 287 293 308 278 301 294 298 291 301 322 327
97 90 83 77 75 59 59 71 80 83 76 66 62 59 58 48 31 41 50 42 29 13 18 23 23 16 5 358 355 9 360 357 320 309 339 310 304 307 300 298 326 345 337
101 94 82 72 71 64 55 64 75 83 81 70 56 48 48 46 38 45 53 47 31 360 358 8 15 13 12 11 15 22 360 346 320 307 333 337 311 332 316 304 317 329 326